TimeMST,TemperatureF,Dew PointF,Humidity,Sea Level PressureIn,VisibilityMPH,Wind Direction,Wind SpeedMPH,Gust SpeedMPH,PrecipitationIn,Events,Conditions,WindDirDegrees,DateUTC
12:57 AM,24.1,16.0,71,30.31,10.0,Calm,Calm,-,N/A,,Clear,0,2012-11-24 07:57:00
1:57 AM,23.0,16.0,74,30.32,10.0,Calm,Calm,-,N/A,,Clear,0,2012-11-24 08:57:00
2:57 AM,23.0,16.0,74,30.31,10.0,Calm,Calm,-,N/A,,Clear,0,2012-11-24 09:57:00
3:57 AM,21.9,16.0,78,30.30,10.0,Calm,Calm,-,N/A,,Clear,0,2012-11-24 10:57:00
4:57 AM,21.9,15.1,75,30.32,10.0,Calm,Calm,-,N/A,,Clear,0,2012-11-24 11:57:00
5:57 AM,21.0,15.1,78,30.37,10.0,Calm,Calm,-,N/A,,Clear,0,2012-11-24 12:57:00
6:57 AM,19.9,15.1,81,30.41,10.0,Calm,Calm,-,N/A,,Clear,0,2012-11-24 13:57:00
7:57 AM,24.1,17.1,75,30.41,10.0,Calm,Calm,-,N/A,,Clear,0,2012-11-24 14:57:00
8:57 AM,36.0,24.1,62,30.37,10.0,Calm,Calm,-,N/A,,Clear,0,2012-11-24 15:57:00
9:57 AM,52.0,23.0,32,30.29,10.0,Calm,Calm,-,N/A,,Clear,0,2012-11-24 16:57:00
10:57 AM,57.0,21.9,26,30.25,10.0,Calm,Calm,-,N/A,,Clear,0,2012-11-24 17:57:00
11:57 AM,60.1,19.0,20,30.21,10.0,Variable,4.6,-,N/A,,Clear,0,2012-11-24 18:57:00
12:57 PM,62.1,18.0,18,30.17,10.0,Variable,4.6,-,N/A,,Clear,0,2012-11-24 19:57:00
1:57 PM,63.0,18.0,18,30.14,10.0,SSE,9.2,-,N/A,,Clear,160,2012-11-24 20:57:00
2:57 PM,61.0,21.9,22,30.13,10.0,NE,9.2,-,N/A,,Clear,50,2012-11-24 21:57:00
3:57 PM,57.9,21.9,25,30.15,10.0,East,8.1,-,N/A,,Clear,100,2012-11-24 22:57:00
4:57 PM,53.1,21.9,30,30.17,10.0,Calm,Calm,-,N/A,,Clear,0,2012-11-24 23:57:00
5:57 PM,43.0,21.9,43,30.22,10.0,Calm,Calm,-,N/A,,Clear,0,2012-11-25 00:57:00
6:57 PM,37.0,21.0,52,30.25,10.0,Calm,Calm,-,N/A,,Clear,0,2012-11-25 01:57:00
7:57 PM,34.0,21.0,59,30.25,10.0,Calm,Calm,-,N/A,,Clear,0,2012-11-25 02:57:00
8:57 PM,30.9,19.9,64,30.19,10.0,Calm,Calm,-,N/A,,Clear,0,2012-11-25 03:57:00
9:57 PM,28.9,19.0,67,30.12,10.0,Calm,Calm,-,N/A,,Clear,0,2012-11-25 04:57:00
10:57 PM,28.0,19.0,69,30.09,10.0,Calm,Calm,-,N/A,,Clear,0,2012-11-25 05:57:00
11:57 PM,27.0,19.0,72,30.07,10.0,Calm,Calm,-,N/A,,Clear,0,2012-11-25 06:57:00